Estación de San Javier

Ultimos registro cada 15 minutos 82
Estación Fecha / Hora Temperatura Humedad Lluvia Velocidad Dirección Radiación Presion
82 San Javier 08-05-2026 20:15 10,4 91 0 0 24 0 1021,1
81 San Javier 08-05-2026 20:00 10,7 90 0 0 24 0 1021,3
80 San Javier 08-05-2026 19:45 11,1 90 0 0 30 0 1021,1
79 San Javier 08-05-2026 19:30 11,4 91 0 0 13 0 1021,3
78 San Javier 08-05-2026 19:15 11,5 91 0 0 22 0 1021,3
77 San Javier 08-05-2026 19:00 11,5 91 0 0 32 0 1020,9
76 San Javier 08-05-2026 18:45 11,6 91 0 0 19 0 1020,7
75 San Javier 08-05-2026 18:30 11,6 91 0 0 19 0 1020,8
74 San Javier 08-05-2026 18:15 11,6 91 0 0 15 0 1020,7
73 San Javier 08-05-2026 18:00 11,8 90 0 0 55 0 1020,8
72 San Javier 08-05-2026 17:45 12 89 0 0 46 0 1020,8
71 San Javier 08-05-2026 17:30 12,4 88 0 0 49 12 1020,8
70 San Javier 08-05-2026 17:15 12,8 88 0 0 12 23 1020,7
69 San Javier 08-05-2026 17:00 12,8 88 0 0 12 35 1020,6
68 San Javier 08-05-2026 16:45 12,8 88 0 0,4 355 77 1020,7
67 San Javier 08-05-2026 16:30 12,9 88 0 0 20 65 1020,8
66 San Javier 08-05-2026 16:15 12,8 88 0 0 20 90 1020,6
65 San Javier 08-05-2026 16:00 12,7 87 0 0 101 123 1020,5
64 San Javier 08-05-2026 15:45 12,6 89 0 0 107 128 1020,3
63 San Javier 08-05-2026 15:30 12,4 89 0,2 0 75 123 1020,6
62 San Javier 08-05-2026 15:15 12,2 90 0 0 24 158 1020,5
61 San Javier 08-05-2026 15:00 11,8 90 0 0 34 209 1021
60 San Javier 08-05-2026 14:45 11,6 90 0 0 44 243 1021
59 San Javier 08-05-2026 14:30 11,8 87 0,2 0,4 103 141 1020,7
58 San Javier 08-05-2026 14:15 12,3 86 0 0,9 86 141 1020,9
57 San Javier 08-05-2026 14:00 12,6 84 0 0 130 204 1021,1
56 San Javier 08-05-2026 13:45 13,4 79 0 0 55 160 1021,2
55 San Javier 08-05-2026 13:30 13,9 75 0 0 355 151 1021,2
54 San Javier 08-05-2026 13:15 14,2 74 0 0 26 199 1021,3
53 San Javier 08-05-2026 13:00 13,8 72 0 0 286 441 1021,2
52 San Javier 08-05-2026 12:45 13,1 75 0 1,8 309 446 1021,4
51 San Javier 08-05-2026 12:30 12,8 78 0 0,4 322 364 1021,6
50 San Javier 08-05-2026 12:15 11,9 82 0 0,4 333 427 1021,6
49 San Javier 08-05-2026 12:00 11,3 84 0 0 321 304 1021,7
48 San Javier 08-05-2026 11:45 11,1 84 0,2 0 324 262 1021,7
47 San Javier 08-05-2026 11:30 10,9 83 0 0 316 151 1022
46 San Javier 08-05-2026 11:15 10,7 83 0 0 86 213 1022,2
45 San Javier 08-05-2026 11:00 10,4 84 0 0 140 202 1022,4
44 San Javier 08-05-2026 10:45 10,2 83 0 0 194 144 1022,6
43 San Javier 08-05-2026 10:30 9,9 86 0 0 132 162 1022,5
42 San Javier 08-05-2026 10:15 9,5 86 0 0 209 174 1022,6
41 San Javier 08-05-2026 10:00 9,2 88 0 0 166 114 1022,6
40 San Javier 08-05-2026 09:45 8,9 91 0 0 172 253 1022,6
39 San Javier 08-05-2026 09:30 8,6 91 0 0 217 137 1022,3
38 San Javier 08-05-2026 09:15 8,2 92 0 0 113 97 1022,6
37 San Javier 08-05-2026 09:00 8 93 0 0 229 79 1022,7
36 San Javier 08-05-2026 08:45 7,7 95 0 0 229 90 1022,6
35 San Javier 08-05-2026 08:30 6,9 95 0 0 231 141 1022,5
34 San Javier 08-05-2026 08:15 6,3 95 0 0 254 63 1022,5
33 San Javier 08-05-2026 08:00 6 95 0 0 254 26 1022,9
32 San Javier 08-05-2026 07:45 5,7 95 0 0 261 16 1022,9
31 San Javier 08-05-2026 07:30 5,5 95 0 0 234 5 1022,8
30 San Javier 08-05-2026 07:15 5,2 94 0 0 227 0 1022,8
29 San Javier 08-05-2026 07:00 5,2 94 0 0 130 0 1022,8
28 San Javier 08-05-2026 06:45 5,3 95 0 0 221 0 1022,9
27 San Javier 08-05-2026 06:30 5,2 94 0 0 231 0 1023
26 San Javier 08-05-2026 06:15 5,1 95 0 0 231 0 1023
25 San Javier 08-05-2026 06:00 4,9 95 0 0 219 0 1023,3
24 San Javier 08-05-2026 05:45 4,8 95 0 0 221 0 1023,4
23 San Javier 08-05-2026 05:30 4,7 94 0 0 229 0 1023,4
22 San Javier 08-05-2026 05:15 4,4 95 0 0 229 0 1023,6
21 San Javier 08-05-2026 05:00 4,3 94 0 0 229 0 1023,3
20 San Javier 08-05-2026 04:45 4,1 94 0 0 229 0 1023,4
19 San Javier 08-05-2026 04:30 4,1 95 0 0 229 0 1023,6
18 San Javier 08-05-2026 04:15 3,7 95 0 0 217 0 1023,4
17 San Javier 08-05-2026 04:00 2,8 93 0 0 23 0 1023,7
16 San Javier 08-05-2026 03:45 2,9 93 0 0 23 0 1023,6
15 San Javier 08-05-2026 03:30 3,1 93 0 0 23 0 1023,4
14 San Javier 08-05-2026 03:15 3,2 92 0 0 23 0 1023,7
13 San Javier 08-05-2026 03:00 3,4 93 0 0 23 0 1024,1
12 San Javier 08-05-2026 02:45 3,6 92 0 0 23 0 1024,6
11 San Javier 08-05-2026 02:30 3,7 92 0 0 23 0 1024,8
10 San Javier 08-05-2026 02:15 3,9 92 0 0 23 0 1024,8
9 San Javier 08-05-2026 02:00 3,9 92 0 0 23 0 1024,9
8 San Javier 08-05-2026 01:45 4 91 0 0 23 0 1025
7 San Javier 08-05-2026 01:30 4,3 90 0 0 23 0 1024,8
6 San Javier 08-05-2026 01:15 4,8 91 0 0 23 0 1025
5 San Javier 08-05-2026 01:00 4,9 90 0 0 23 0 1025,1
4 San Javier 08-05-2026 00:45 5,3 89 0 0 23 0 1025,3
3 San Javier 08-05-2026 00:30 5,6 89 0 0 23 0 1025,7
2 San Javier 08-05-2026 00:15 5,9 88 0 0 23 0 1025,5
1 San Javier 08-05-2026 00:00 6,4 88 0 0 23 0 1025,8